Estación Meteorológica Peña el Pijo (Robertgarden) [ 09/30/20 19:21:53 CEST ]

Fecha Hora Presion(HPa) Temp (°C) Humedad % Rocio (°C) Viento ( m/s) Direccion Lluvia 1Hora(mm) Lluvia 24H(mm) LLuvia Total(mm)
2020-Feb-05 01:09:07 1017.500 - - - - N     39.88
2020-Feb-05 02:10:05 1016.900 - - - - N     39.88
2020-Feb-05 03:09:26 1016.600 - - - - N     39.88
2020-Feb-05 04:09:23 1016.100 - - - - N     39.88
2020-Feb-05 05:09:25 1015.400 - - - - N     39.88
2020-Feb-05 06:09:31 1015.200 - - - - N     39.88
2020-Feb-05 07:09:16 1015.700 - - - - N     39.88
2020-Feb-05 08:09:07 1015.900 - - - - N     39.88
2020-Feb-05 09:09:17 1016.400 - - - - N     39.88
2020-Feb-05 10:09:20 1016.600 - - - - N     39.88
2020-Feb-05 11:09:17 1016.300 - - - - N     39.88
2020-Feb-05 12:09:19 1016.000 - - - - N     39.88
2020-Feb-05 13:09:12 1015.100 - - - - N     39.88
2020-Feb-05 14:08:58 1014.200 - - - - N     39.88
2020-Feb-05 15:08:45 1013.700 - - - - N     39.88
2020-Feb-05 16:09:12 1013.600 - - - - N     39.88
2020-Feb-05 17:09:15 1013.300 - - - - N     39.88
2020-Feb-05 18:09:24 1013.600 - - - - N     39.88
2020-Feb-05 19:09:14 1014.000 - - - - N     39.88
2020-Feb-05 20:09:48 1014.300 - - - - N     39.88
2020-Feb-05 21:09:32 1014.300 - - - - N     39.88
2020-Feb-05 22:09:40 1014.400 - - - - N     39.88
2020-Feb-05 23:09:29 1014.300 - - - - N     39.88

Temperatura Máxima:    Temperatura Mínima:
Presión Máxima:1017.500 Hpa    Presión Mínima:1013.300 Hpa


Volver